Regional Weather Roundup
Issued by NWS Little Rock, AR

Home | Current Version | Previous Version | Text Only | Print | Product List | Glossary Off
Versions: 1 2 3 4 5 6 7 8 9 10 11 12 13 14 15 16 17 18 19 20 21 22 23 24 25 26 27 28 29 30 31 32 33 34 35 36 37 38 39 40 41 42 43 44 45 46 47 48 49 50

000
ASUS44 KLZK 060405
RWRLZK

WEATHER ROUNDUP FOR ARKANSAS
NATIONAL WEATHER SERVICE LITTLE ROCK AR
1100 PM CDT TUE MAY 05 2015

NOTE: "FAIR" INDICATES FEW OR NO CLOUDS BELOW 12,000 FEET WITH NO
SIGNIFICANT WEATHER AND/OR OBSTRUCTIONS TO VISIBILITY.

ARZ001-003-010-029-060500-
NORTHWEST ARKANSAS

CITY           SKY/WX    TMP DP  RH WIND       PRES   REMARKS
FAYETTEVILLE   CLEAR     71  56  58 SE9       30.05F
FORT SMITH     CLOUDY    75  52  44 SE8       30.02F
HARRISON       PTCLDY    65  54  67 SE7       30.11S
BENTONVILLE    PTCLDY   N/A N/A N/A SE8       30.06F
ROGERS         PTCLDY    69  54  58 SE10      30.07S
SILOAM SPGS    PTCLDY    66  52  59 SE10      30.06S
HIGHFILL       PTCLDY    70  53  54 SE12      30.05S
$$

ARZ004-005-016-060500-
NORTH CENTRAL ARKANSAS

CITY           SKY/WX    TMP DP  RH WIND       PRES   REMARKS
BATESVILLE     CLEAR     70  52  52 E6        30.13S
FLIPPIN        PTCLDY    70  54  56 CALM      30.10S
MTN HOME       PTCLDY    69  53  56 SE3       30.11S
$$

ARZ040-041-060500-
WEST CENTRAL ARKANSAS

CITY           SKY/WX    TMP DP  RH WIND       PRES   REMARKS
MENA           CLOUDY    77  59  53 SE8       30.06S
MOUNT IDA      PTCLDY    73  55  53 SE7       30.05F
$$

ARZ009-017-025-026-028-060500-
NORTHEAST ARKANSAS

CITY           SKY/WX    TMP DP  RH WIND       PRES   REMARKS
CORNING          N/A     66  55  68 SE7       30.15S
JONESBORO      CLEAR     66  53  63 S5        30.14R
NEWPORT        CLEAR     70  54  56 SE14      30.15R
WALNUT RIDGE   CLEAR     66  50  55 S7        30.13F
BLYTHEVILLE    CLEAR     71  53  52 S3        30.16R
$$

ARZ022-023-033-042-044-060500-
CENTRAL ARKANSAS

CITY           SKY/WX    TMP DP  RH WIND       PRES   REMARKS
LITTLE ROCK    PTCLDY    70  55  59 E7        30.10S
N LITTLE ROCK  PTCLDY    72  59  64 SE7       30.10S
JACKSONVILLE   CLEAR     69  56  63 SE8       30.10S
SEARCY         CLEAR     67  56  67 SE3       30.14R
HOT SPRINGS    PTCLDY    70  57  63 E8        30.09R
RUSSELLVILLE   PTCLDY    70  55  59 E5        30.08R
CLINTON        FAIR      61  59  94 CALM      30.12F
$$

ARZ036-060500-
EAST ARKANSAS

CITY           SKY/WX    TMP DP  RH WIND       PRES   REMARKS
WEST MEMPHIS   CLEAR     67  55  65 SE3       30.14R
$$

ARZ050-053-066-070-073-060500-
SOUTHWEST ARKANSAS

CITY           SKY/WX    TMP DP  RH WIND       PRES   REMARKS
ARKADELPHIA    FAIR      66  65  97 CALM      30.08S
CAMDEN         CLEAR     66  57  72 CALM      30.08S
TEXARKANA      PTCLDY    73  60  63 SE10      30.05R
EL DORADO      MOCLDY    71  59  65 E7        30.09R
DE QUEEN       MOCLDY    72  61  68 SE6       30.02S
$$

ARZ056-057-069-060500-
SOUTHEAST ARKANSAS

CITY           SKY/WX    TMP DP  RH WIND       PRES   REMARKS
PINE BLUFF     CLEAR     69  57  65 SE5       30.11R
STUTTGART      CLEAR     72  54  53 E7        30.12S
MONTICELLO     CLEAR     70  57  63 CALM      30.11R

$$





USA.gov is the U.S. government's official web portal to all federal, state and local government web resources and services.